Skip Page Navigation
NASA JPL Caltech
NASA Logo - Jet Propulsion Laboratory + View the NASA Portal
+ Center for Near-Earth Object Studies
JPL Home Earth Solar System Stars & Galaxies Technology
JPL Solar System Dynamics
BODIES ORBITS EPHEMERIDES TOOLS PHYSICAL DATA DISCOVERY FAQ SITE MAP
IMPORTANT: The SSD Announcement email list is now available. Major changes are coming in the near future, including possible hostname and/or URL changes. To be notified of such changes, subscribe to this email list.

Please visit this page for more details.


JPL Small-Body Database Browser
Search: [ help ]  
447604 (2006 UO116)
Classification: Main-belt Asteroid          SPK-ID: 2447604
Ephemeris | Orbit Diagram | Orbital Elements | Mission Design | Physical Parameters | Discovery Circumstances ]

[ show orbit diagram ]
Orbital Elements at Epoch 2458600.5 (2019-Apr-27.0) TDB
Reference: JPL 10 (heliocentric ecliptic J2000)
 Element Value Uncertainty (1-sigma)   Units 
e .2022785060993124 8.3128e-08  
a 2.716901388958992 2.5534e-08 au
q 2.16733063478122 2.3142e-07 au
i 7.351952875678539 9.864e-06 deg
node 210.6427257438045 5.3812e-05 deg
peri 215.7932819565805 6.4964e-05 deg
M 259.7895528285747 3.0775e-05 deg
tp 2459055.823158602793
(2020-Jul-25.32315860)
0.00014359 TDB
period 1635.721042304117
4.48
2.306e-05
6.313e-08
d
yr
n .2200864271409599 3.1027e-09 deg/d
Q 3.266472143136764 3.0699e-08 au
  Orbit Determination Parameters
   # obs. used (total)      164  
   data-arc span      4776 days (13.08 yr)  
   first obs. used      2006-09-25  
   last obs. used      2019-10-23  
   planetary ephem.      DE431  
   SB-pert. ephem.      SB431-N16  
   condition code      0  
   norm. resid. RMS      .58281  
   source      ORB  
   producer      Otto Matic  
   solution date      2019-Nov-08 16:22:21  

Additional Information
 Earth MOID = 1.18523 au 
 Jupiter MOID = 2.08313 au 
 T_jup = 3.319 
[ show covariance matrix ]

Ephemeris | Orbit Diagram | Orbital Elements | Mission Design | Physical Parameters | Discovery Circumstances ]

Physical Parameter Table
Parameter Symbol Value Units Sigma Reference Notes
absolute magnitude H 17.0   n/a MPO368926  

447604 (2006 UO116)          Discovered 2006-Sep-25 by Spacewatch at Kitt Peak
Reference: Last Updated: 2015-10-28
Ephemeris | Orbit Diagram | Orbital Elements | Mission Design | Physical Parameters | Discovery Circumstances ]
ABOUT SSD CREDITS/AWARDS PRIVACY/COPYRIGHT GLOSSARY LINKS
FirstGov
(server date/time)  
NASA Home Page
Site Manager:   Ryan S. Park
Webmaster  Alan B. Chamberlin